FW5690 Weather Reports


time (UTC)temp
C
wind
direction
speed
KPH
gust
KPH
rain 1hr
cm
rain 24hr
cm
rain mn
cm
humidity
%
barometer
mb
20260503180048 15 283 3.2 12.9 0.00 0.00 0.00 71 1015.2
20260503175518 15 0 0.0 6.4 0.00 0.00 0.00 70 1015.1
20260503175018 15 0 0.0 4.8 0.00 0.00 0.00 70 1015.1
20260503174544 15 0 0.0 8.0 0.00 0.00 0.00 70 1015.0
20260503174016 15 0 0.0 11.3 0.00 0.00 0.00 71 1015.0
20260503173516 15 275 1.6 11.3 0.00 0.00 0.00 70 1015.0
20260503173046 15 0 1.6 6.4 0.00 0.00 0.00 69 1014.9
20260503172518 15 0 0.0 0.0 0.00 0.00 0.00 68 1014.9
20260503172020 15 0 0.0 0.0 0.00 0.00 0.00 68 1014.9
20260503171534 15 0 0.0 0.0 0.00 0.00 0.00 68 1014.8
20260503171019 15 0 0.0 0.0 0.00 0.00 0.00 69 1014.8
20260503170519 15 0 0.0 0.0 0.00 0.00 0.00 70 1014.7
20260503150521 12 0 0.0 0.0 0.00 0.00 0.00 82 1014.6
20260503131016 12 0 0.0 0.0 0.00 0.00 0.00 82 1013.4
20260503130517 12 0 0.0 0.0 0.00 0.00 0.00 82 1013.3
20260503110520 12 0 0.0 0.0 0.00 0.00 0.00 80 1013.1
20260503081542 12 0 0.0 3.2 0.00 0.00 0.00 80 1013.7
20260503081019 12 0 0.0 3.2 0.00 0.00 0.00 80 1013.8
20260503080520 12 0 0.0 3.2 0.00 0.00 0.00 79 1013.8
20260503072519 12 0 0.0 4.8 0.00 0.00 0.00 80 1014.1
20260503072019 12 0 0.0 8.0 0.00 0.00 0.00 80 1014.0
20260503071543 12 0 0.0 8.0 0.00 0.00 0.00 80 1014.1
20260503071019 12 0 0.0 8.0 0.00 0.00 0.00 80 1014.1
20260503070519 12 0 0.0 8.0 0.00 0.00 0.00 80 1014.1
20260503055018 13 0 0.0 8.0 0.00 0.00 0.00 79 1014.2
20260503054537 13 0 0.0 8.0 0.00 0.00 0.00 79 1014.3
20260503054019 13 0 0.0 3.2 0.00 0.00 0.00 79 1014.4
20260503053521 13 0 0.0 3.2 0.00 0.00 0.00 79 1014.4
20260503053035 13 0 0.0 4.8 0.00 0.00 0.00 78 1014.5
20260503052519 13 0 0.0 9.7 0.00 0.00 0.00 79 1014.5
20260503052017 13 0 0.0 9.7 0.00 0.00 0.00 79 1014.5
20260503051538 13 0 0.0 6.4 0.00 0.00 0.00 79 1014.5
20260503051022 13 0 0.0 6.4 0.00 0.00 0.00 79 1014.6
20260503050518 13 0 0.0 0.0 0.00 0.00 0.00 78 1014.6
20260503050033 13 0 0.0 0.0 0.00 0.00 0.00 78 1014.5
20260503045521 13 0 0.0 0.0 0.00 0.00 0.00 78 1014.5
20260503045020 13 0 0.0 9.7 0.00 0.00 0.00 77 1014.5
20260503044544 13 0 0.0 9.7 0.00 0.00 0.00 77 1014.4
20260503044016 13 0 0.0 8.0 0.00 0.00 0.00 77 1014.4
20260503043519 13 0 0.0 8.0 0.00 0.00 0.00 77 1014.3
20260503043036 13 0 0.0 4.8 0.00 0.00 0.00 77 1014.2
20260503042521 13 0 0.0 4.8 0.00 0.00 0.00 77 1014.1
20260503042019 13 0 0.0 6.4 0.00 0.00 0.00 77 1014.1
20260503041536 13 0 0.0 6.4 0.00 0.00 0.00 77 1014.1
20260503041021 13 0 0.0 3.2 0.00 0.00 0.00 77 1014.0
20260503040516 13 0 0.0 3.2 0.00 0.00 0.00 77 1014.0
20260503040035 13 0 0.0 8.0 0.00 0.00 0.00 77 1014.0
20260503035517 13 0 0.0 8.0 0.00 0.00 0.00 77 1013.9
20260503035022 13 0 0.0 0.0 0.00 0.00 0.00 77 1013.8
20260503034536 13 0 0.0 4.8 0.00 0.00 0.00 76 1013.8
20260503034019 13 0 0.0 4.8 0.00 0.00 0.00 76 1013.7
20260503033523 13 0 0.0 4.8 0.00 0.00 0.00 76 1013.8
20260503033038 13 0 0.0 4.8 0.00 0.00 0.00 76 1013.7
20260503032519 13 0 0.0 9.7 0.00 0.00 0.00 76 1013.8
20260503032021 13 0 0.0 9.7 0.00 0.00 0.00 76 1013.6
20260503031542 13 312 0.0 9.7 0.00 0.00 0.00 76 1013.5
20260503031019 13 0 0.0 4.8 0.00 0.00 0.00 76 1013.4
20260503030519 13 0 0.0 8.0 0.00 0.00 0.00 75 1013.3
20260503030049 13 0 0.0 8.0 0.00 0.00 0.00 75 1013.3
20260503025519 14 0 0.0 8.0 0.00 0.00 0.00 75 1013.3
20260503025016 14 0 0.0 3.2 0.00 0.00 0.00 75 1013.2
20260503024540 14 0 0.0 8.0 0.00 0.00 0.00 74 1013.2
20260503024018 14 0 0.0 8.0 0.00 0.00 0.00 74 1013.2
20260503023517 15 0 0.0 4.8 0.00 0.00 0.00 74 1013.1
20260503023035 15 0 0.0 11.3 0.00 0.00 0.00 74 1013.0
20260503022516 15 0 1.6 11.3 0.00 0.00 0.00 73 1013.0
20260503022016 15 0 0.0 8.0 0.00 0.00 0.00 73 1013.0
20260503021539 15 0 0.0 9.7 0.00 0.00 0.00 72 1012.9
20260503021017 15 0 0.0 9.7 0.00 0.00 0.00 72 1012.9
20260503020521 15 0 0.0 6.4 0.00 0.00 0.00 72 1013.0
20260503020035 15 0 0.0 8.0 0.00 0.00 0.00 72 1012.9
20260503015519 15 0 1.6 8.0 0.00 0.00 0.00 72 1012.9
20260503015020 15 0 0.0 8.0 0.00 0.00 0.00 71 1013.0
20260503014556 15 0 0.0 8.0 0.00 0.00 0.00 72 1013.0
20260503014017 15 0 0.0 17.7 0.00 0.00 0.00 71 1013.0
20260503013517 16 0 0.0 17.7 0.00 0.00 0.00 71 1012.9
20260503013037 16 266 1.6 14.5 0.00 0.00 0.00 71 1012.9
20260503012518 16 0 1.6 14.5 0.00 0.00 0.00 71 1013.0
20260503012019 16 0 0.0 14.5 0.00 0.00 0.00 71 1012.9
20260503011544 16 0 0.0 14.5 0.00 0.00 0.00 71 1012.9
20260503011016 16 297 6.4 14.5 0.00 0.00 0.00 71 1013.0
20260503010517 16 0 0.0 12.9 0.00 0.00 0.00 71 1012.9
20260503010035 16 0 1.6 12.9 0.00 0.00 0.00 70 1012.9
20260503005519 16 0 0.0 14.5 0.00 0.00 0.00 70 1013.0
20260503005018 16 0 1.6 14.5 0.00 0.00 0.00 69 1013.0
20260503004533 17 327 1.6 17.7 0.00 0.00 0.00 69 1013.0
20260503004016 17 0 1.6 17.7 0.00 0.00 0.00 68 1012.9
20260503003516 17 334 1.6 16.1 0.00 0.00 0.00 68 1013.0
20260503003031 17 335 1.6 12.9 0.00 0.00 0.00 67 1013.0
20260503002516 17 282 1.6 12.9 0.00 0.00 0.00 67 1012.9
20260503002016 17 323 1.6 14.5 0.00 0.00 0.00 68 1013.0
20260503001539 18 316 3.2 14.5 0.00 0.00 0.00 67 1012.9
20260503001016 18 314 0.0 11.3 0.00 0.00 0.00 66 1013.1
20260503000519 18 274 0.0 12.9 0.00 0.00 0.00 66 1013.1
20260503000037 18 0 1.6 12.9 0.00 0.00 0.00 65 1012.9
20260502235518 18 302 0.0 16.1 0.00 0.00 0.00 65 1013.0
20260502235018 18 0 1.6 16.1 0.00 0.00 0.00 65 1013.0
20260502234535 18 302 4.8 16.1 0.00 0.00 0.00 65 1012.9
20260502234018 19 289 0.0 12.9 0.00 0.00 0.00 65 1012.9
20260502233516 18 0 0.0 12.9 0.00 0.00 0.00 66 1013.0
20260502233036 18 319 4.8 12.9 0.00 0.00 0.00 64 1013.0
20260502232516 19 322 0.0 11.3 0.00 0.00 0.00 64 1013.0
20260502232017 19 304 1.6 19.3 0.00 0.00 0.00 64 1013.0
20260502231535 19 0 3.2 19.3 0.00 0.00 0.00 64 1013.1
20260502231016 20 341 4.8 19.3 0.00 0.00 0.00 63 1013.1
20260502230519 20 0 3.2 14.5 0.00 0.00 0.00 63 1013.2
20260502230040 20 0 1.6 12.9 0.00 0.00 0.00 64 1013.2
20260502225518 20 0 3.2 16.1 0.00 0.00 0.00 63 1013.3
20260502225017 20 0 0.0 16.1 0.00 0.00 0.00 63 1013.3
20260502224537 20 0 0.0 16.1 0.00 0.00 0.00 62 1013.4
20260502224017 20 0 0.0 16.1 0.00 0.00 0.00 63 1013.4
20260502223517 20 307 0.0 12.9 0.00 0.00 0.00 63 1013.4
20260502223035 20 0 0.0 14.5 0.00 0.00 0.00 63 1013.5
20260502222519 20 0 1.6 14.5 0.00 0.00 0.00 62 1013.6
20260502222019 20 295 0.0 9.7 0.00 0.00 0.00 63 1013.7
20260502221537 20 0 0.0 9.7 0.00 0.00 0.00 63 1013.7
20260502221016 20 0 0.0 9.7 0.00 0.00 0.00 62 1013.9
20260502220518 20 0 0.0 11.3 0.00 0.00 0.00 62 1013.9
20260502220040 21 8 1.6 11.3 0.00 0.00 0.00 62 1013.9
20260502215517 21 0 1.6 11.3 0.00 0.00 0.00 61 1014.1
20260502215019 21 0 0.0 11.3 0.00 0.00 0.00 60 1014.1
20260502214536 21 262 1.6 11.3 0.00 0.00 0.00 61 1014.1
20260502214016 20 338 0.0 11.3 0.00 0.00 0.00 62 1014.0
20260502213516 20 0 0.0 0.0 0.00 0.00 0.00 61 1014.1
20260502213042 20 0 0.0 6.4 0.00 0.00 0.00 63 1014.1
20260502212516 20 0 0.0 11.3 0.00 0.00 0.00 63 1014.1
20260502212016 20 0 1.6 11.3 0.00 0.00 0.00 62 1014.2
20260502211536 20 248 0.0 11.3 0.00 0.00 0.00 63 1014.3
20260502211018 20 0 0.0 6.4 0.00 0.00 0.00 64 1014.2
20260502210521 20 183 0.0 6.4 0.00 0.00 0.00 64 1014.3
20260502210036 20 0 0.0 6.4 0.00 0.00 0.00 65 1014.4
20260502205516 19 0 0.0 0.0 0.00 0.00 0.00 65 1014.5
20260502205019 19 0 0.0 11.3 0.00 0.00 0.00 65 1014.7
20260502204534 20 0 1.6 11.3 0.00 0.00 0.00 65 1014.9
20260502204019 19 294 0.0 0.0 0.00 0.00 0.00 67 1014.8
20260502203518 18 0 0.0 4.8 0.00 0.00 0.00 67 1014.9
20260502203045 18 0 0.0 8.0 0.00 0.00 0.00 66 1014.9
20260502202520 19 0 0.0 8.0 0.00 0.00 0.00 68 1015.0
20260502202016 18 0 0.0 8.0 0.00 0.00 0.00 69 1015.1
20260502201539 18 246 1.6 8.0 0.00 0.00 0.00 68 1015.1
20260502201018 18 0 0.0 6.4 0.00 0.00 0.00 69 1015.3
20260502200518 17 0 0.0 4.8 0.00 0.00 0.00 69 1015.3
20260502200039 18 0 0.0 8.0 0.00 0.00 0.00 69 1015.4
20260502195517 18 0 0.0 8.0 0.00 0.00 0.00 70 1015.5
20260502195019 17 0 0.0 9.7 0.00 0.00 0.00 69 1015.5
20260502194537 17 0 0.0 9.7 0.00 0.00 0.00 70 1015.4
20260502194017 17 0 1.6 9.7 0.00 0.00 0.00 69 1015.5
20260502193519 17 0 0.0 0.0 0.00 0.00 0.00 71 1015.5
20260502193035 17 0 0.0 4.8 0.00 0.00 0.00 72 1015.6
20260502192519 17 0 0.0 4.8 0.00 0.00 0.00 72 1015.6
20260502192018 17 0 0.0 4.8 0.00 0.00 0.00 72 1015.6
20260502191534 17 0 0.0 0.0 0.00 0.00 0.00 74 1015.7
20260502191019 16 0 0.0 0.0 0.00 0.00 0.00 73 1015.7
20260502190515 16 0 0.0 6.4 0.00 0.00 0.00 73 1015.7
20260502190035 16 0 0.0 6.4 0.00 0.00 0.00 73 1015.7
20260502185518 16 0 0.0 6.4 0.00 0.00 0.00 75 1015.8
20260502185018 16 0 0.0 4.8 0.00 0.00 0.00 77 1015.9
20260502184532 15 0 0.0 4.8 0.00 0.00 0.00 78 1015.9
20260502184018 15 0 0.0 0.0 0.00 0.00 0.00 78 1015.8
20260502183516 15 0 0.0 3.2 0.00 0.00 0.00 80 1016.0
20260502183036 15 0 0.0 3.2 0.00 0.00 0.00 80 1015.9
20260502182524 15 0 0.0 0.0 0.00 0.00 0.00 80 1015.9
20260502182021 15 0 0.0 6.4 0.00 0.00 0.00 82 1016.1
20260502181548 14 0 0.0 6.4 0.00 0.00 0.00 82 1016.0
20260502181020 14 0 0.0 6.4 0.00 0.00 0.00 81 1016.0
20260502180520 15 0 0.0 6.4 0.00 0.00 0.00 82 1016.0